Home   Weather   Kodiak   Past weeks

Flag for USA Past Weather in Kodiak, Alaska, USA — Yesterday and Last 2 Weeks

Now
35 °F

Passing clouds.


Feels Like: 27 °F
Forecast: 30 / 36 °F
Wind: 10 mph from Northwest

Location: Kodiak Weather Reporting Station

Current Time: Dec 10, 2016 at 9:02:03 pm

Latest Report: Dec 10, 2016 at 7:53 pm


Visibility: 10 mi

Pressure: 30.20 "Hg

Humidity: 88%

Dew Point: 32 °F

Location of KodiakLocation

Past Weather in Kodiak — Graph

°F

Kodiak Temperature Yesterday

Maximum temperature yesterday: 37 °F (at 12:53 pm)
Minimum temperature yesterday: 35 °F (at 12:53 am)
Average temperature yesterday: 36 °F

High & Low Weather Summary for the Past Weeks

 TemperatureHumidityPressure
High43 °F (Nov 26, 2:53 pm)100% (Dec 5, 3:53 pm)30.36 "Hg (Dec 5, 3:53 pm)
Low14 °F (Dec 5, 2:53 am)26% (Nov 28, 12:53 am)28.59 "Hg (Nov 26, 6:53 pm)
Average31 °F79%29.65 "Hg
* Reported Nov 25 7:53 pm — Dec 10 7:53 pm, Kodiak, Weather by CustomWeather, © 2016

Note: Actual official high and low records may vary slightly from our data, if they occured in-between our weather recording intervals... More about our weather records

Advertising

Kodiak Weather History for the Previous 24 Hours

Scroll right to see more
 ConditionsComfort  
Time TempWeatherWind HumidityBarometerVisibility
7:53 pm
Sat, Dec 10
35 °FPassing clouds.10 mph88%30.20 "Hg10 mi
6:49 pm35 °FPassing clouds.10 mph88%30.19 "Hg10 mi
5:53 pm36 °FPassing clouds.9 mph85%30.19 "Hg10 mi
4:53 pm36 °FPassing clouds.9 mph85%30.18 "Hg10 mi
3:53 pm37 °FPartly sunny.8 mph82%30.17 "Hg10 mi
2:53 pm37 °FPartly sunny.8 mph79%30.16 "Hg10 mi
1:53 pm37 °FMore clouds than sun.8 mph76%30.15 "Hg10 mi
12:53 pm37 °FPartly sunny.10 mph76%30.14 "Hg10 mi
11:53 am37 °FScattered clouds.10 mph73%30.13 "Hg10 mi
10:53 am37 °FPartly sunny.10 mph73%30.12 "Hg10 mi
9:53 am36 °FPartly sunny.9 mph75%30.10 "Hg10 mi
8:53 am36 °FPassing clouds.13 mph73%30.07 "Hg10 mi
7:53 am35 °FOvercast.12 mph75%30.06 "Hg10 mi
6:53 am34 °FOvercast.13 mph79%30.04 "Hg10 mi
5:53 am35 °FOvercast.12 mph75%30.04 "Hg10 mi
4:53 am36 °FOvercast.12 mph73%30.02 "Hg10 mi
3:53 am36 °FClear.15 mph79%30.02 "Hg10 mi
2:53 am36 °FClear.16 mph82%30.01 "Hg10 mi
1:53 am36 °FPassing clouds.16 mph89%30.00 "Hg10 mi
12:53 am37 °FPassing clouds.13 mph93%29.99 "Hg10 mi
11:53 pm
Fri, Dec 9
36 °FOvercast.5 mph97%29.99 "Hg10 mi
10:53 pm35 °FPassing clouds.6 mph96%29.98 "Hg10 mi
9:53 pm37 °FLight rain. Overcast.5 mph96%29.97 "Hg8 mi
Weather by CustomWeather, © 2016

See weather overviewHow to use our weather pages